Regional Weather Roundup
Issued by NWS

Home | Current Version | Previous Version | Text Only | Print | Product List | Glossary Off
Versions: 1 2 3 4 5 6 7 8 9 10 11 12 13 14 15 16 17 18 19 20 21 22 23 24 25 26 27 28 29 30 31 32 33 34 35 36 37 38 39 40 41 42 43 44 45 46 47 48 49 50

000
ASUS43 KDMX 230107
RWRIA

WEATHER ROUNDUP FOR IOWA
NATIONAL WEATHER SERVICE DES MOINES IA
800 PM CDT FRI MAY 22 2015

NOTE: "FAIR" INDICATES FEW OR NO CLOUDS BELOW 12,000 FEET WITH NO
SIGNIFICANT WEATHER AND/OR OBSTRUCTIONS TO VISIBILITY.

* - THESE STATIONS ARE NOT NWS STATIONS...THUS NOT UNDER NWS
QUALITY CONTROL.  THEY ALSO DO NOT REPORT WEATHER SUCH
AS PRECIPITATION OR FOG.

IAZ001>003-012>014-020>022-031>034-043>046-230200-
   NORTHWEST IOWA

CITY           SKY/WX    TMP DP  RH WIND       PRES   REMARKS
CARROLL *      CLOUDY    61  46  59 S7G15     30.20S
CHEROKEE *     CLOUDY    61  45  55 SW10      30.19S
DENISON *      MOCLDY    57  52  82 CALM      30.18F
LE MARS *      PTCLDY    63  43  48 S12G18    30.20S
ORANGE CITY *  CLEAR     61  43  51 SW14      30.19S
SHELDON *      CLEAR     64  41  42 SW18G25   30.17R
SIOUX CITY     LGT RAIN  59  46  62 S9        30.19S
SPENCER        CLOUDY    69  42  37 SW13      30.17R
STORM LAKE *   CLEAR     63  43  48 SW14      30.20S
$$

IAZ055>058-069>071-079>083-090>094-230200-
   SOUTHWEST IOWA

CITY           SKY/WX    TMP DP  RH WIND       PRES   REMARKS
ATLANTIC *     MOCLDY    63  46  55 SE3       30.19F
AUDUBON *      MOCLDY    59  52  77 CALM      30.21F
CLARINDA *     MOCLDY    64  46  52 SE3       30.21S
COUNCIL BLFS * CLEAR     63  46  55 SE7       30.18F
CRESTON *      CLEAR     63  50  63 CALM      30.21S
HARLAN  *      MOCLDY    61  54  77 NE3       30.23S
LAMONI         MOCLDY    66  55  67 CALM      30.22R
RED OAK *      CLOUDY    63  48  59 SE7       30.19S
SHENANDOAH *   CLOUDY    64  48  55 S6        30.20R
$$

IAZ047>049-059>061-072>074-084-230200-
   CENTRAL IOWA

CITY           SKY/WX    TMP DP  RH WIND       PRES   REMARKS
AMES           CLOUDY    68  42  38 SW12      30.18R
ANKENY *       CLEAR     68  46  45 SW12G17   30.19R
CHARITON *     MOCLDY    64  50  59 S6        30.23R
DES MOINES     CLOUDY    68  44  42 SW14      30.20R
GRINNELL*      CLOUDY    70  41  35 CALM      30.20R
KNOXVILLE *    MOCLDY    66  48  52 SW12      30.20R
MARSHALLTOWN   CLOUDY    69  41  36 SW5       30.18R
PELLA *        CLOUDY    68  57  68 W9        30.21R
PERRY *        CLOUDY    64  43  45 SW15G22   30.20S
$$

IAZ004>006-015-016-023>025-035-036-230200-
   NORTH CENTRAL IOWA

CITY           SKY/WX    TMP DP  RH WIND       PRES   REMARKS
ALGONA *       CLEAR     68  43  40 SE5       30.17F
CLARION *      CLEAR     70  34  26 CALM      30.18S
ESTHERVILLE    CLOUDY    69  36  29 S5        30.16S
FORT DODGE *   CLOUDY    64  50  59 SE3       30.18S
MASON CITY     CLOUDY    70  36  28 SW3       30.19R
FOREST CITY *  CLEAR     64  43  45 CALM      30.18S
IOWA FALLS *     N/A     70  36  28 W5        30.19S
$$

IAZ007>011-017>019-026>030-037>042-050>054-066-230200-
   NORTHEAST IOWA

CITY           SKY/WX    TMP DP  RH WIND       PRES   REMARKS
CEDAR RAPIDS   CLOUDY    69  41  36 S3        30.19R
CHARLES CITY * CLEAR     68  39  34 S5        30.19S
CLINTON *      CLOUDY    64  46  52 E6        30.22S
DECORAH *      CLEAR     68  37  32 E5        30.19S
DUBUQUE        CLOUDY    65  47  52 E6        30.21S
MONTICELLO *   CLEAR     68  48  49 S3        30.19S
OELWEIN *      CLEAR     70  37  30 CALM      30.20R
WATERLOO       CLOUDY    70  40  33 E3        30.17S
$$

IAZ064-065-067-068-078-230200-
   EAST CENTRAL IOWA

CITY           SKY/WX    TMP DP  RH WIND       PRES   REMARKS
DAVENPORT      CLOUDY    72  36  26 CALM      30.20S
IOWA CITY      CLOUDY    71  40  32 CALM      30.21R
MT. PLEASANT * CLOUDY    68  43  40 S3        30.21R
MUSCATINE *    CLEAR     70  50  49 CALM      30.20R
QUAD CITIES    CLOUDY    68  48  48 CALM      30.19R
$$

IAZ062-063-075>077-085>089-095>099-230200-
   SOUTHEAST IOWA

CITY           SKY/WX    TMP DP  RH WIND       PRES   REMARKS
BURLINGTON     CLOUDY    68  50  52 SW5       30.21R
FAIRFIELD *    PTCLDY    72  41  33 SW8       30.21R
FORT MADISON * PTCLDY    66  52  59 CALM      30.22R
KEOKUK *       PTCLDY    68  54  60 SW9       30.22R
OSKALOOSA *    MOCLDY    70  48  46 SW8       30.20S
CENTERVILLE *  CLEAR     63  63 100 S8        30.24R
OTTUMWA        CLOUDY    68  52  56 SW6       30.20R
WASHINGTON *   CLEAR     70  43  37 SW5       30.21S
$$

ABBREVIATIONS USED IN REMARKS
   TC - TEMPERATURES IN CELSIUS
  WCI - WIND CHILL INDEX
   HX - HEAT INDEX
  VSB - VISIBILITY
$$



USA.gov is the U.S. government's official web portal to all federal, state and local government web resources and services.